Location: Astronomy Club of Akron Observatory
(40.9700°N, 81.5606°W)
Time: 19:27:32
(UTC-04:00)

Daily predictions for brighter satellites

Satellite Brightness Start Highest point End
(mag) Time Altitude Azimuth Time Altitude Azimuth Time Altitude Azimuth
Shenzhou-11 Module 2.1 21:12:58 10° W 21:15:56 75° NNW 21:18:55 10° ENE
Cosmos 44 Rocket 3.7 21:11:09 10° NW 21:16:20 75° WSW 21:21:31 10° SSE
ATLAS CENTAUR R/B 4.3 21:11:38 10° S 21:17:18 44° ESE 21:32:26 10° NE
Cosmos 2082 Rocket 3.0 21:14:02 10° SW 21:19:36 59° WNW 21:25:14 10° NNE
ATLAS 3B R/B 2.8 21:12:51 10° SSW 21:19:59 66° ESE 21:26:52 10° NE
Cosmos 1536 3.8 21:16:10 10° NNW 21:20:07 50° W 21:24:03 10° SSW
ATLAS CENTAUR R/B 1.7 21:17:32 10° NNW 21:22:03 70° NE 21:26:49 10° SE
Cosmos 2322 Rocket 3.6 21:18:06 10° N 21:22:37 24° NE 21:27:06 10° ESE
NOAA 11 4.3 21:17:22 10° SSE 21:22:46 63° ENE 21:28:10 10° N
SJ-11-01 4.3 21:20:22 10° SSE 21:25:04 81° ENE 21:29:50 10° N
Atlas Centaur 2 2.9 21:24:27 10° SW 21:26:48 16° S 21:29:03 10° SE
SL-24 R/B 4.4 21:23:15 10° SSE 21:28:04 74° E 21:33:14 10° N
SL-16 R/B 3.4 21:25:01 10° N 21:29:55 29° NE 21:34:43 10° ESE
DNEPR-1 R/B 3.6 21:26:13 10° SSW 21:30:19 57° ESE 21:34:54 10° NE
Cosmos 1802 Rocket 4.4 21:25:00 10° SSW 21:31:16 71° W 21:37:41 10° N
GPS 2-04 Rocket1 3.8 21:27:47 10° WSW 21:31:37 34° S 21:35:09 12° SE
Cosmos 1975 3.6 21:28:00 10° N 21:31:46 36° ENE 21:35:20 11° SE
ARGOS 3.8 21:30:29 10° SE 21:35:26 39° ENE 21:40:25 10° N
ISS -3.9 21:34:08 10° SW 21:37:22 65° SE 21:40:37 10° ENE
Spot 2 Rocket 3.5 21:35:22 10° SSE 21:40:25 89° WSW 21:45:30 10° NNW
Cosmos 1975 Rocket 3.7 21:39:07 10° SSE 21:43:02 35° E 21:46:58 10° NNE
Okean 1 Rocket 3.0 21:38:43 10° N 21:43:05 75° E 21:47:25 10° SSE
Cosmos 1378 Rocket 3.4 21:38:51 10° S 21:43:09 78° E 21:47:29 10° N
Cosmos 1674 Rocket 4.2 21:39:03 10° SSW 21:43:28 62° W 21:47:53 10° N
Cosmos 2360 4.4 21:39:04 10° NNW 21:44:47 78° WSW 21:50:28 10° SSE
Cosmos 304 Rocket 3.7 21:41:38 10° SSW 21:46:26 78° ESE 21:51:16 10° NNE
Cosmos 468 Rocket 4.3 21:41:37 10° S 21:46:39 47° ESE 21:51:39 10° NNE
USA 238 DEB 4.1 21:44:55 10° SW 21:51:45 70° NW 21:58:43 10° NNE
USA 238 4.1 21:45:02 10° SW 21:51:51 70° NW 21:58:49 10° NNE
Abrixas rocket 2.6 21:49:19 10° SSW 21:52:18 37° SE 21:55:19 10° ENE
Cosmos 2233 Rocket 4.0 21:46:22 10° S 21:52:25 66° E 21:58:33 10° NNE
Resurs 01 Rocket 2.7 21:50:26 10° S 21:54:37 43° W 21:58:50 10° NNW
Cosmos 1763 Rocket 4.1 21:53:10 10° SSE 21:58:00 37° ESE 22:02:50 10° NE
Cosmos 1570 Rocket 4.0 21:53:46 10° SSW 21:59:06 88° ESE 22:04:30 10° NNE
Cosmos 841 Rocket 4.5 21:57:55 16° SE 22:00:52 27° E 22:05:12 10° NE
Cosmos 1697 Rocket 4.4 22:00:04 10° NW 22:04:53 29° WSW 22:09:41 10° SSW
BREEZE-M R/B 2.9 22:03:49 10° WSW 22:08:07 60° NNW 22:10:47 10° NE
Tiangong 2 1.1 22:05:47 10° WSW 22:08:52 54° SSE 22:10:49 20° E
Okean 1 4.2 22:05:39 10° SSW 22:09:36 52° W 22:13:35 10° N
BREEZE-M DEB (TANK) 2.6 22:07:50 10° WNW 22:10:07 53° SSW 22:12:02 24° SE
MetOp-B 4.2 22:06:43 17° SSE 22:10:47 68° ENE 22:16:07 10° N
Cosmos 2360 Rocket 3.5 22:09:46 10° N 22:14:32 27° NE 22:17:49 16° ESE
Helios 1A 3.9 22:13:25 22° ESE 22:15:13 32° ENE 22:18:56 10° N
H-2A R/B 1.9 22:12:55 20° SSE 22:16:19 70° ENE 22:21:18 10° N
Cosmos 1980 Rocket 3.2 22:12:03 10° NW 22:17:19 41° WSW 22:22:35 10° S
SJ 16-02 3.4 22:15:38 10° NNE 22:18:17 15° ENE 22:20:02 13° E
Lacrosse 5 rocket 3.7 22:16:12 10° NNW 22:19:10 18° NNE 22:22:02 10° ENE
Timation 2 Rocket 3.8 22:13:57 10° SSW 22:19:55 84° ESE 22:26:00 10° NNE
BREEZE M DEB (TANK) 3.3 22:11:03 10° WNW 22:21:44 76° NNE 22:23:57 25° ESE
DMSP B5D2-2 4.5 22:16:43 10° NNE 22:21:47 44° E 22:24:43 23° SSE
USA 234 3.9 22:16:16 10° NE 22:22:41 58° NW 22:29:04 10° WSW
Meteor 2-9 Rocket 4.2 22:18:40 10° N 22:23:57 62° ENE 22:27:03 25° SSE
Cosmos 1666 3.2 22:20:12 10° NNW 22:24:01 59° W 22:26:43 18° S
NOSS 3-2 (A) 3.9 22:19:08 10° SW 22:24:58 66° NW 22:31:30 10° NNE
Cosmos 1898 Rocket 3.5 22:21:04 10° NNW 22:26:23 86° WSW 22:29:42 24° SSE
Cosmos 1356 4.3 22:28:02 31° E 22:28:09 31° E 22:31:16 10° NNE
Cosmos 1743 3.2 22:24:29 10° NNW 22:28:15 57° W 22:30:42 20° SSW
Cosmos 2084 3.3 22:24:24 10° SSW 22:28:42 66° ESE 22:32:48 10° NE
NOSS 3-2 (C) 3.5 22:23:03 10° SW 22:28:57 84° NW 22:35:31 10° NE
ERS-1 Rocket 2.9 22:27:55 25° SSE 22:30:53 79° ENE 22:35:56 10° N
Cosmos 1242 Rocket 3.0 22:28:38 10° NNW 22:32:15 58° W 22:34:07 25° SSW
Cosmos 1814 Rocket 3.9 22:27:50 11° S 22:32:51 72° ESE 22:38:08 10° NNE
Cosmos 2034 Rocket 4.4 22:30:47 26° SE 22:33:44 41° E 22:39:26 10° NNE
Centaur D-1AR AC-36 4.4 22:10:14 10° WSW 22:33:51 26° SSW 22:37:33 20° SSE
Meteor 2-4 Rocket 3.5 22:34:00 17° S 22:38:10 80° E 22:43:44 10° NNE
Cosmos 1464 Rocket 4.0 22:34:57 21° S 22:39:16 65° E 22:45:36 10° NNE
Meteor 1-29 4.4 22:37:22 10° NE 22:39:40 24° ENE 22:39:40 24° ENE
Iridium 2 4.3 22:37:45 18° SSW 22:40:22 56° W 22:44:09 10° N
Cosmos 1833 4.4 22:39:25 25° S 22:42:29 49° ESE 22:47:57 10° NE
SPOT 5 2.7 22:42:32 38° SE 22:44:03 64° ENE 22:48:31 10° N
Landsat 7 4.1 22:43:59 35° SE 22:45:37 51° ENE 22:50:14 10° N
Cosmos 1340 Rocket 2.7 22:45:03 38° S 22:46:33 79° E 22:50:38 10° NNE
USA 245 3.1 22:47:23 48° SSW 22:48:09 70° W 22:52:03 10° NNW
CARTOSAT-1 4.3 22:48:41 34° ESE 22:49:37 39° ENE 22:53:38 10° N
Shenzhou-11 Module 2.2 22:49:11 10° WNW 22:52:08 61° N 22:52:17 60° NNE
Cosmos 990 Rocket 4.1 22:46:56 10° NNW 22:52:08 70° WSW 22:54:32 32° S
Cosmos 2150 Rocket 4.0 22:49:51 10° NNW 22:55:17 87° ENE 22:57:21 39° SSE
Helios 1B rocket 2.4 22:53:13 10° NNE 22:57:20 64° E 22:58:04 53° SSE
Cosmos 1891 Rocket 4.4 22:54:22 26° S 22:58:04 81° E 23:04:25 10° N
CENTAUR R/B 2.3 22:53:34 10° SSW 22:59:25 75° ESE 23:06:12 10° NE
Cosmos 2322 4.3 22:54:37 10° NNW 23:00:07 45° ENE 23:02:12 32° ESE
ATLAS CENTAUR R/B 4.1 22:58:15 10° W 23:00:35 14° WSW 23:02:57 10° SW
IGS 5A 3.7 23:00:23 47° ESE 23:01:00 52° ENE 23:05:02 10° N
Terra 2.1 23:03:13 42° ESE 23:04:18 51° ENE 23:08:56 10° N
Cosmos 1515 3.6 23:05:30 60° SSW 23:06:08 83° W 23:09:59 10° N
CZ-4C R/B 4.0 22:59:55 10° NNW 23:06:18 34° NE 23:11:22 18° E
Cosmos 2322 Rocket 2.7 23:01:31 10° NNW 23:06:57 52° WSW 23:09:23 30° SSW
Cosmos 2237 Rocket 4.5 23:07:15 10° NNE 23:09:44 13° NE 23:12:12 10° ENE
Meteor 1-15 Rocket 4.2 23:04:12 10° N 23:09:59 77° E 23:11:52 44° SSE
Cosmos 1455 Rocket 3.7 23:07:26 10° NNW 23:11:39 49° W 23:13:08 34° SW
Cosmos 1025 Rocket 3.4 23:12:52 45° E 23:12:52 45° E 23:16:56 10° NNE
ISS -1.2 23:11:27 10° WNW 23:14:05 22° NNW 23:16:45 10° NNE
SL-16 R/B 3.0 23:08:50 10° NW 23:14:08 42° WSW 23:16:36 27° SSW
Cosmos 2298 Rocket 4.4 23:09:40 10° NNW 23:14:51 56° WSW 23:16:43 36° SSW
CZ-2C R/B 3.5 23:15:51 42° ESE 23:17:09 53° ENE 23:22:31 10° N
Aureole 2 Rocket 3.3 23:15:09 10° NNW 23:17:20 39° NW 23:17:20 39° NW
Cosmos 2237 4.2 23:21:36 10° NNW 23:27:21 72° ENE 23:28:45 51° SE
Abrixas rocket 3.6 23:25:41 10° W 23:28:44 37° NNW 23:29:39 30° NNE
Cosmos 2219 4.1 23:30:42 33° E 23:30:42 33° E 23:35:21 10° NE
Okean 1-7 Rocket 4.1 23:39:29 48° ENE 23:39:29 48° ENE 23:43:27 10° NNE
Cosmos 540 Rocket 3.7 23:38:12 36° SW 23:40:14 65° WNW 23:45:24 10° NNE
Spot 1 4.4 23:40:08 50° WSW 23:40:17 50° W 23:44:17 10° NNW
Tiangong 2 3.8 23:42:29 10° W 23:43:05 15° W 23:43:05 15° W
Cosmos 1092 Rocket 3.9 23:41:57 10° N 23:48:21 84° E 23:49:52 55° SSE
Cosmos 2333 4.1 23:47:58 10° NNW 23:53:38 73° ENE 23:54:27 62° ESE
H-2A R/B 4.4 23:54:14 10° WSW 23:56:16 12° W 23:58:20 10° WNW
